Radiation Dose at Monitoring Post of Fukushima Daini Nuclear Power Station
Date,Time,MP-1(microSv/h),MP-2(microSv/h),MP-3(microSv/h),MP-4(microSv/h),MP-5(microSv/h),MP-6(microSv/h),MP-7(microSv/h),Wind Direction,Wind Velocity(m/s),Rain
2020/03/27,00:00,0.185,0.170,0.278,0.255,0.261,0.143,0.087,south-southwest,0.9,No
2020/03/27,00:10,0.185,0.170,0.279,0.255,0.262,0.143,0.087,east-southeast,0.6,No
2020/03/27,00:20,0.185,0.170,0.277,0.254,0.260,0.143,0.086,northeast,0.6,No
2020/03/27,00:30,0.185,0.170,0.278,0.255,0.260,0.143,0.087,-,CALM,No
2020/03/27,00:40,0.185,0.170,0.278,0.254,0.262,0.143,0.087,north-northeast,0.7,No
2020/03/27,00:50,0.185,0.170,0.279,0.255,0.261,0.142,0.087,east,1.4,No
2020/03/27,01:00,0.187,0.170,0.278,0.255,0.260,0.144,0.088,-,CALM,No
2020/03/27,01:10,0.185,0.169,0.278,0.255,0.262,0.143,0.088,east-northeast,2.3,No
2020/03/27,01:20,0.185,0.170,0.278,0.254,0.260,0.143,0.087,northeast,2.7,No
2020/03/27,01:30,0.185,0.171,0.279,0.255,0.259,0.144,0.088,northeast,2.7,No
2020/03/27,01:40,0.186,0.170,0.279,0.255,0.261,0.144,0.088,north-northeast,3.3,No
2020/03/27,01:50,0.185,0.170,0.277,0.255,0.262,0.144,0.087,north,3.3,No
2020/03/27,02:00,0.184,0.171,0.278,0.255,0.261,0.144,0.087,north,2.5,No
2020/03/27,02:10,0.186,0.170,0.278,0.255,0.259,0.142,0.087,north,2.1,No
2020/03/27,02:20,0.185,0.170,0.277,0.256,0.261,0.143,0.087,north-northwest,2.0,No
2020/03/27,02:30,0.186,0.170,0.277,0.255,0.261,0.143,0.088,north-northwest,1.2,No
2020/03/27,02:40,0.184,0.171,0.279,0.255,0.262,0.144,0.087,-,CALM,No
2020/03/27,02:50,0.186,0.170,0.278,0.255,0.262,0.143,0.088,-,CALM,No
2020/03/27,03:00,0.185,0.169,0.279,0.256,0.261,0.144,0.087,-,CALM,No
2020/03/27,03:10,0.184,0.170,0.278,0.256,0.260,0.143,0.087,-,CALM,No
2020/03/27,03:20,0.185,0.171,0.277,0.255,0.261,0.144,0.087,-,CALM,No
2020/03/27,03:30,0.186,0.170,0.278,0.255,0.261,0.143,0.086,north,0.6,No
2020/03/27,03:40,0.186,0.170,0.280,0.255,0.260,0.144,0.087,-,CALM,No
2020/03/27,03:50,0.186,0.171,0.277,0.256,0.259,0.143,0.088,-,CALM,No
2020/03/27,04:00,0.185,0.171,0.277,0.256,0.262,0.142,0.088,-,CALM,No
2020/03/27,04:10,0.186,0.171,0.278,0.255,0.262,0.143,0.087,-,CALM,No
2020/03/27,04:20,0.185,0.170,0.278,0.254,0.260,0.143,0.088,north-northwest,0.6,No
2020/03/27,04:30,0.185,0.170,0.278,0.255,0.261,0.143,0.087,-,CALM,No
2020/03/27,04:40,0.186,0.170,0.278,0.256,0.261,0.144,0.087,-,CALM,No
2020/03/27,04:50,0.185,0.170,0.278,0.255,0.261,0.144,0.087,-,CALM,No
2020/03/27,05:00,0.186,0.170,0.277,0.255,0.260,0.143,0.087,-,CALM,No
2020/03/27,05:10,0.185,0.170,0.278,0.255,0.260,0.142,0.087,-,CALM,No
2020/03/27,05:20,0.185,0.170,0.279,0.255,0.261,0.142,0.087,south-southwest,0.6,No
2020/03/27,05:30,0.185,0.169,0.278,0.254,0.260,0.142,0.087,-,CALM,No
2020/03/27,05:40,0.185,0.170,0.278,0.254,0.259,0.143,0.088,south,0.7,No
2020/03/27,05:50,0.186,0.170,0.277,0.254,0.261,0.143,0.088,south,1.4,No
2020/03/27,06:00,0.185,0.171,0.277,0.255,0.260,0.143,0.088,south,1.7,No
2020/03/27,06:10,0.185,0.170,0.277,0.256,0.261,0.143,0.087,south-southwest,2.1,No
2020/03/27,06:20,0.186,0.170,0.276,0.254,0.261,0.143,0.087,south-southwest,2.2,No
2020/03/27,06:30,0.185,0.170,0.279,0.255,0.260,0.143,0.086,south-southeast,2.4,No
2020/03/27,06:40,0.186,0.169,0.279,0.256,0.262,0.143,0.087,south-southeast,2.4,No
2020/03/27,06:50,0.187,0.171,0.279,0.255,0.262,0.144,0.088,south,2.6,No
2020/03/27,07:00,0.186,0.171,0.278,0.256,0.263,0.144,0.087,south-southeast,2.5,No
2020/03/27,07:10,0.185,0.172,0.279,0.256,0.262,0.143,0.088,south-southeast,2.6,No
2020/03/27,07:20,0.186,0.171,0.280,0.256,0.262,0.143,0.088,south-southeast,1.5,No
2020/03/27,07:30,0.186,0.171,0.277,0.254,0.262,0.144,0.088,south-southeast,1.0,No
2020/03/27,07:40,0.186,0.171,0.278,0.257,0.262,0.144,0.088,east-southeast,1.2,No
2020/03/27,07:50,0.186,0.171,0.276,0.254,0.262,0.143,0.087,-,CALM,No
2020/03/27,08:00,0.186,0.171,0.277,0.254,0.262,0.144,0.088,-,CALM,No
2020/03/27,08:10,0.186,0.171,0.277,0.254,0.263,0.143,0.087,-,CALM,No
2020/03/27,08:20,0.186,0.170,0.277,0.256,0.264,0.144,0.088,east,0.7,No
2020/03/27,08:30,0.186,0.171,0.274,0.254,0.262,0.144,0.087,-,CALM,No
2020/03/27,08:40,0.185,0.170,0.279,0.255,0.262,0.143,0.087,south-southeast,1.4,No
2020/03/27,08:50,0.184,0.170,0.275,0.254,0.260,0.143,0.087,south,2.0,No
2020/03/27,09:00,0.184,0.170,0.278,0.255,0.262,0.144,0.087,south-southwest,2.0,No
2020/03/27,09:10,0.185,0.169,0.276,0.253,0.260,0.143,0.088,south-southeast,1.5,No
2020/03/27,09:20,0.186,0.170,0.277,0.255,0.263,0.142,0.087,southeast,2.7,No
2020/03/27,09:30,0.185,0.170,0.276,0.253,0.260,0.143,0.086,southeast,2.3,No
2020/03/27,09:40,0.184,0.170,0.277,0.255,0.260,0.142,0.086,southeast,2.0,No
2020/03/27,09:50,0.185,0.169,0.277,0.254,0.260,0.143,0.088,east-southeast,2.6,No
2020/03/27,10:00,0.186,0.171,0.277,0.255,0.264,0.142,0.086,southeast,2.6,No
2020/03/27,10:10,0.185,0.169,0.278,0.254,0.260,0.143,0.087,southeast,1.9,No
2020/03/27,10:20,0.186,0.170,0.278,0.257,0.263,0.142,0.087,south-southeast,2.4,No
2020/03/27,10:30,0.185,0.169,0.280,0.254,0.261,0.143,0.087,south-southeast,2.8,No
2020/03/27,10:40,0.185,0.170,0.277,0.257,0.262,0.144,0.088,south-southeast,2.3,No
2020/03/27,10:50,0.187,0.170,0.280,0.254,0.261,0.144,0.087,east-southeast,2.2,No
2020/03/27,11:00,0.185,0.171,0.276,0.256,0.263,0.143,0.088,southeast,2.4,No
2020/03/27,11:10,0.186,0.171,0.278,0.255,0.262,0.144,0.088,southeast,3.2,No
2020/03/27,11:20,0.185,0.171,0.277,0.255,0.262,0.143,0.087,southeast,3.5,No
2020/03/27,11:30,0.186,0.171,0.280,0.256,0.261,0.144,0.087,southeast,4.4,No
2020/03/27,11:40,0.185,0.170,0.277,0.256,0.261,0.142,0.087,south-southeast,4.4,No
2020/03/27,11:50,0.185,0.171,0.280,0.254,0.262,0.144,0.087,south-southeast,4.3,No
2020/03/27,12:00,0.186,0.170,0.278,0.257,0.262,0.144,0.087,south-southeast,4.3,No
2020/03/27,12:10,0.185,0.171,0.279,0.255,0.262,0.144,0.087,south,3.8,Yes
2020/03/27,12:20,0.186,0.171,0.279,0.257,0.262,0.143,0.088,south-southeast,4.1,Yes
2020/03/27,12:30,0.185,0.171,0.278,0.255,0.262,0.143,0.087,south-southeast,4.6,No
2020/03/27,12:40,0.187,0.171,0.280,0.256,0.263,0.144,0.087,south-southeast,5.6,No
2020/03/27,12:50,0.186,0.171,0.277,0.256,0.260,0.143,0.087,south-southeast,5.3,No
2020/03/27,13:00,0.187,0.171,0.279,0.256,0.262,0.143,0.088,south-southeast,4.7,No
2020/03/27,13:10,0.185,0.170,0.277,0.256,0.259,0.143,0.087,south,4.6,No
2020/03/27,13:20,0.185,0.171,0.278,0.254,0.263,0.144,0.087,south,3.7,No
2020/03/27,13:30,0.186,0.171,0.278,0.255,0.259,0.142,0.087,south,3.3,No
2020/03/27,13:40,0.186,0.171,0.278,0.255,0.264,0.143,0.087,south,2.8,No
2020/03/27,13:50,0.185,0.171,0.277,0.256,0.260,0.143,0.087,south-southeast,2.1,No
2020/03/27,14:00,0.183,0.170,0.278,0.255,0.262,0.143,0.087,south,2.9,No
2020/03/27,14:10,0.186,0.170,0.275,0.256,0.260,0.143,0.087,south,4.1,No
2020/03/27,14:20,0.185,0.169,0.278,0.254,0.259,0.142,0.087,south-southeast,6.3,No
2020/03/27,14:30,0.183,0.170,0.277,0.253,0.260,0.143,0.087,south,6.8,No
2020/03/27,14:40,0.185,0.168,0.275,0.255,0.260,0.143,0.086,south,7.1,No
2020/03/27,14:50,0.184,0.171,0.278,0.252,0.259,0.142,0.087,south,9.5,No
2020/03/27,15:00,0.183,0.170,0.275,0.251,0.257,0.142,0.086,south,10.1,No
2020/03/27,15:10,0.185,0.169,0.274,0.254,0.258,0.142,0.086,south,10.7,No
2020/03/27,15:20,0.183,0.169,0.278,0.253,0.261,0.142,0.087,south,10.3,No
2020/03/27,15:30,0.183,0.169,0.275,0.255,0.259,0.143,0.087,south,10.4,No
2020/03/27,15:40,0.184,0.169,0.279,0.255,0.263,0.142,0.086,south-southeast,10.3,No
2020/03/27,15:50,0.184,0.170,0.276,0.257,0.261,0.143,0.086,south,10.6,No
2020/03/27,16:00,0.186,0.170,0.280,0.254,0.263,0.142,0.086,south-southeast,9.2,No
2020/03/27,16:10,0.184,0.170,0.276,0.255,0.261,0.143,0.087,south-southeast,7.0,No
2020/03/27,16:20,0.185,0.171,0.279,0.254,0.261,0.143,0.086,south-southeast,6.4,No
2020/03/27,16:30,0.184,0.169,0.276,0.256,0.261,0.143,0.087,south,6.1,Yes
2020/03/27,16:40,0.186,0.170,0.278,0.254,0.262,0.143,0.086,south,6.1,Yes
2020/03/27,16:50,0.184,0.171,0.277,0.255,0.261,0.143,0.087,south,5.5,Yes
2020/03/27,17:00,0.186,0.171,0.279,0.255,0.262,0.143,0.087,south-southeast,5.0,Yes
2020/03/27,17:10,0.184,0.170,0.278,0.255,0.261,0.143,0.087,south-southeast,5.0,Yes
2020/03/27,17:20,0.186,0.172,0.280,0.256,0.262,0.143,0.087,south,5.2,No
2020/03/27,17:30,0.184,0.170,0.278,0.255,0.262,0.144,0.087,south,5.5,Yes
2020/03/27,17:40,0.187,0.169,0.278,0.255,0.262,0.142,0.087,south,4.7,Yes
2020/03/27,17:50,0.185,0.171,0.280,0.255,0.261,0.144,0.087,south-southeast,3.6,Yes
2020/03/27,18:00,0.186,0.170,0.278,0.256,0.262,0.143,0.087,south-southeast,2.5,Yes
2020/03/27,18:10,0.186,0.172,0.279,0.254,0.260,0.144,0.087,south,1.8,Yes
2020/03/27,18:20,0.187,0.170,0.277,0.255,0.262,0.143,0.087,south-southeast,2.4,Yes
2020/03/27,18:30,0.186,0.171,0.279,0.256,0.261,0.144,0.088,south-southeast,3.3,No
2020/03/27,18:40,0.186,0.171,0.277,0.255,0.262,0.144,0.088,south-southeast,3.7,No
2020/03/27,18:50,0.186,0.170,0.277,0.255,0.260,0.142,0.087,south,3.1,No
2020/03/27,19:00,0.184,0.171,0.279,0.255,0.262,0.143,0.087,south,2.8,No
2020/03/27,19:10,0.185,0.169,0.277,0.256,0.261,0.143,0.087,south-southeast,3.6,No
2020/03/27,19:20,0.185,0.170,0.278,0.256,0.262,0.143,0.086,south-southeast,4.6,No
2020/03/27,19:30,0.184,0.171,0.277,0.255,0.260,0.142,0.087,south-southeast,5.3,No
2020/03/27,19:40,0.185,0.169,0.277,0.255,0.260,0.143,0.087,south,4.6,No
2020/03/27,19:50,0.185,0.170,0.277,0.254,0.262,0.143,0.086,south,5.0,No
2020/03/27,20:00,0.185,0.170,0.277,0.255,0.259,0.142,0.087,south,4.7,No
2020/03/27,20:10,0.185,0.170,0.278,0.253,0.262,0.142,0.087,south,5.2,No
2020/03/27,20:20,0.185,0.170,0.275,0.255,0.259,0.142,0.086,south,5.6,No
2020/03/27,20:30,0.184,0.169,0.276,0.254,0.261,0.142,0.086,south,6.1,No
2020/03/27,20:40,0.184,0.170,0.278,0.254,0.260,0.142,0.086,south,5.8,No
2020/03/27,20:50,0.185,0.169,0.276,0.255,0.261,0.142,0.087,south,6.7,No
2020/03/27,21:00,0.183,0.169,0.277,0.254,0.261,0.142,0.087,south,5.4,Yes
2020/03/27,21:10,0.184,0.170,0.276,0.253,0.262,0.143,0.087,south,4.3,Yes
2020/03/27,21:20,0.184,0.170,0.277,0.255,0.261,0.143,0.086,south,5.1,Yes
2020/03/27,21:30,0.185,0.169,0.275,0.255,0.261,0.142,0.087,south,4.6,No
2020/03/27,21:40,0.184,0.170,0.277,0.254,0.260,0.142,0.087,south-southeast,5.6,No
2020/03/27,21:50,0.186,0.169,0.276,0.254,0.260,0.142,0.086,south,7.4,No
2020/03/27,22:00,0.183,0.169,0.276,0.254,0.261,0.142,0.087,south,6.3,No
2020/03/27,22:10,0.184,0.170,0.278,0.254,0.261,0.143,0.086,south,6.7,No
2020/03/27,22:20,0.184,0.169,0.276,0.255,0.260,0.142,0.086,south,7.2,No
2020/03/27,22:30,0.184,0.170,0.277,0.254,0.260,0.142,0.086,south,7.9,No
2020/03/27,22:40,0.184,0.168,0.277,0.255,0.260,0.141,0.086,south,7.4,No
2020/03/27,22:50,0.184,0.169,0.277,0.253,0.260,0.143,0.086,south,7.2,No
2020/03/27,23:00,0.185,0.168,0.276,0.254,0.262,0.143,0.086,south-southwest,6.9,No
2020/03/27,23:10,0.184,0.169,0.276,0.254,0.260,0.143,0.086,south-southwest,7.3,No
2020/03/27,23:20,0.185,0.169,0.277,0.252,0.262,0.142,0.086,south-southwest,7.6,No
2020/03/27,23:30,0.183,0.168,0.276,0.255,0.259,0.143,0.087,south-southwest,8.3,No
2020/03/27,23:40,0.184,0.169,0.277,0.253,0.260,0.141,0.086,south,7.1,No
2020/03/27,23:50,0.183,0.168,0.276,0.255,0.259,0.142,0.085,south,5.9,No
